| time (UTC) | temp C | wind direction | speed KPH | gust KPH | rain 1hr cm | rain 24hr cm | rain mn cm | humidity % | barometer mb |
| 20260901150151 | 21 | 0 | 0.0 | 0.0 | 0.03 | 0.20 | 0.20 | 95 | 1015.8 |
| 20260901140151 | 21 | 218 | 0.0 | 3.2 | 0.10 | 0.15 | 0.15 | 95 | 1016.5 |
| 20260901130152 | 21 | 189 | 0.0 | 4.8 | 0.00 | 0.05 | 0.05 | 95 | 1016.5 |
| 20260901110152 | 20 | 224 | 0.0 | 9.7 | 0.03 | 0.05 | 0.05 | 95 | 1016.5 |
| 20260901100153 | 20 | 168 | 0.0 | 4.8 | 0.00 | 0.00 | 0.00 | 94 | 1016.3 |
| 20260901090151 | 20 | 166 | 0.0 | 4.8 | 0.00 | 0.00 | 0.00 | 93 | 1016.5 |
| 20260901083150 | 21 | 181 | 0.0 | 6.4 | 0.00 | 0.00 | 0.00 | 93 | 1016.8 |
| 20260901080150 | 21 | 0 | 0.0 | 0.0 | 0.00 | 0.00 | 0.00 | 91 | 1017.0 |
| 20260901073150 | 21 | 0 | 0.0 | 0.0 | 0.00 | 0.00 | 0.00 | 91 | 1017.0 |
| 20260901070154 | 21 | 0 | 0.0 | 0.0 | 0.00 | 0.00 | 0.00 | 89 | 1017.3 |
| 20260901060151 | 21 | 0 | 0.0 | 0.0 | 0.00 | 0.00 | 0.00 | 87 | 1017.6 |
| 20260901040154 | 21 | 193 | 0.0 | 0.0 | 0.00 | 0.00 | 0.00 | 83 | 1018.2 |
| 20260901023150 | 21 | 186 | 1.6 | 4.8 | 0.00 | 0.00 | 0.00 | 81 | 1018.4 |
| 20260901000155 | 22 | 174 | 0.0 | 6.4 | 0.00 | 0.00 | 0.00 | 73 | 1018.5 |
| 20260831230151 | 22 | 189 | 0.0 | 1.6 | 0.00 | 0.00 | 0.00 | 68 | 1018.9 |
| 20260831223150 | 23 | 210 | 1.6 | 6.4 | 0.00 | 0.00 | 0.00 | 71 | 1018.9 |
| 20260831210151 | 25 | 195 | 1.6 | 6.4 | 0.00 | 0.00 | 0.00 | 61 | 1018.8 |
| 20260831203150 | 27 | 209 | 3.2 | 12.9 | 0.00 | 0.00 | 0.00 | 49 | 1018.8 |
| 20260831190152 | 26 | 229 | 4.8 | 12.9 | 0.00 | 0.00 | 0.00 | 54 | 1019.6 |
| 20260831180151 | 28 | 147 | 0.0 | 1.6 | 0.00 | 0.00 | 0.00 | 49 | 1019.8 |
| 20260831170241 | 28 | 97 | 1.6 | 4.8 | 0.00 | 0.00 | 0.00 | 47 | 1020.1 |
| 20260831170151 | 28 | 97 | 1.6 | 4.8 | 0.00 | 0.00 | 0.00 | 47 | 1020.1 |